Tracking 18945 objects as of 21-Jan-2018
HD Live streaming from Space Station
objects crossing your sky now

FENGYUN 1C DEB

Track FENGYUN 1C DEB now!
10-day predictions


NORAD ID: 35147
Int'l Code: 1999-025DMB
Perigee: 739.4 km
Apogee: 810.8 km
Inclination: 99.5 °
Period: 100.2 minutes
Semi major axis: 7146 km
RCS: 0.0009 m2 (small)
Launch date: May 10, 1999
Source: People's Republic of China (PRC)
Launch site: Taiyaun Space Center, China (TSC)

Note: This is SATELLITE DEBRIS
aabbcc
Your satellite tracking list
Your tracking list is empty




NASA's NSSDC Master Catalog

Two Line Element Set (TLE):
1 35147U 99025DMB 18020.38497745  .00000370  00000-0  14027-3 0  9990
2 35147  99.5087  76.0390 0049964 354.2734   5.7872 14.37138513521503
Source of the keplerian elements: AFSPC